[[{"header":{"parameterUnit":"m.s-1","parameterCategory":1,"la1":30.2991,"la2":30.254,"lo1":-89.0895,"lo2":-89.0444,"dy":0.0017,"dx":0.0017,"nx":28,"ny":28,"refTime":"2023-03-31T21:00:00:Z","depth":0,"parameterNumber":2,"parameterNumberName":"U-component_of_WINDS"},"data":[0,0,0,0,0,0,0,0,0,0,0,0,0,0,0,0,0,0,0,0,0,0,0,0,0,0,0,0,0,0,0,0,0,0,0,0,0,0,0,0,0,0,0,0,0,0,0,0,0,0,0,0,0,0,0,0,0,0,2.2368,2.2368,0,2.2324,2.2324,2.2323,2.2249,2.2248,2.2246,2.2245,2.2203,2.2203,2.2203,0,0,0,0,0,0,0,0,0,0,0,0,0,2.2391,2.2391,2.2368,2.2368,2.2367,2.2324,2.2324,2.2323,2.2249,2.2248,2.2246,2.2245,2.2203,2.2203,2.2203,0,0,0,0,0,0,0,0,0,0,0,0,0,2.2368,2.2391,2.2368,2.2325,2.2321,2.2325,2.2324,2.2323,2.225,2.2248,2.2246,2.2244,2.2203,2.2203,2.2203,2.2247,0,0,2.2204,2.2204,0,0,0,0,0,0,0,0,2.2369,2.2367,2.2332,2.2328,2.2323,2.229,2.2316,2.2298,2.225,2.2277,2.2245,2.2243,2.2234,2.2231,2.2228,2.2245,2.2243,2.2204,2.2204,2.2205,2.2205,0,0,0,0,0,0,0,2.2371,2.2368,2.2351,2.2332,2.2326,2.2309,2.2303,2.2312,2.2268,2.2274,2.2269,2.2265,2.2231,2.2228,2.2226,2.2242,2.2204,2.2204,2.2205,2.2205,2.2293,2.2295,0,0,0,0,0,0,2.2378,2.237,2.2352,2.235,2.2341,2.231,2.2304,2.2303,2.2267,2.226,2.2266,2.2261,2.2228,2.2226,2.2225,2.2273,2.2205,2.2205,2.2205,2.2291,2.2293,2.2296,0,0,0,0,0,0,2.2379,2.2377,2.2354,2.2358,2.2354,2.2312,2.2311,2.2303,2.23,2.2261,2.2253,2.2271,2.2227,2.2224,2.2242,2.2271,2.2205,2.2205,2.2288,2.2291,2.2294,2.237,0,0,0,0,0,0,2.238,2.2378,2.2393,2.2359,2.2354,2.2371,2.2313,2.2304,2.23,2.2293,2.2263,2.2257,2.2225,2.2242,2.2242,2.227,2.2205,2.2285,2.2289,2.2293,2.2365,2.2376,2.2385,0,0,0,0,0,2.2381,2.2417,2.2395,2.2393,2.2372,2.2373,2.237,2.2332,2.2303,2.2318,2.2293,2.2258,2.2267,2.2244,2.2244,2.2272,2.2283,2.2288,2.2293,2.2361,2.2374,2.2385,0,0,0,0,0,0,2.2457,2.2412,2.2386,2.2412,2.2397,2.236,2.2379,2.2347,2.234,2.2334,2.2288,2.2282,2.2306,2.229,2.2265,2.2312,2.227,2.2275,2.2321,2.2333,2.2343,2.2347,2.2206,0,0,0,0,0,2.2476,2.248,2.2441,2.2467,2.2461,2.2422,2.242,2.2392,2.2375,2.2368,2.2345,2.233,2.233,2.2331,2.2328,2.2362,2.2355,2.2382,2.2392,2.24,2.2405,2.2423,2.2434,2.2312,2.2312,2.2312,0,0,2.2517,2.2493,2.2498,2.2482,2.2467,2.2472,2.2416,2.2425,2.2429,2.237,2.2384,2.2367,2.2348,2.2374,2.2384,2.2362,2.2438,2.2406,2.2413,2.2414,2.2429,2.2441,2.2451,2.2315,2.2314,2.2314,0,0,2.2594,2.2576,2.2596,2.2582,2.2559,2.2533,2.2538,2.2506,2.2492,2.2506,2.2462,2.2467,2.2467,2.2455,2.2449,2.2522,2.2489,2.2523,2.2575,2.2592,2.2602,2.261,2.2637,2.2647,2.2528,2.2528,2.2528,0,2.2648,2.2653,2.2611,2.2622,2.2616,2.2562,2.2583,2.2572,2.255,2.2548,2.2523,2.2522,2.2506,2.2528,2.2546,2.2543,2.2548,2.2526,2.2604,2.2612,2.2619,2.2644,2.2654,2.2532,2.2532,2.2531,2.2531,0,2.2721,2.2725,2.2745,2.2724,2.2721,2.2737,2.2698,2.27,2.2672,2.2649,2.2664,2.2642,2.2634,2.2637,2.2611,2.2657,2.2643,2.2612,2.2568,2.2636,2.2658,2.2667,2.2538,2.2537,2.2535,2.2534,0,0,2.2844,2.28,2.2808,2.2798,2.2769,2.2772,2.2786,2.2778,2.2781,2.2768,2.2779,2.278,2.2751,2.2744,2.2716,2.2731,2.2791,2.2698,2.2697,2.2716,2.2841,2.2865,2.2877,2.2769,2.2771,2.2772,2.2843,0,2.2915,2.2935,2.2898,2.2927,2.2932,2.2881,2.2893,2.2877,2.2856,2.2857,2.2834,2.2836,2.2796,2.2792,2.2805,2.2781,2.2816,2.2776,2.278,2.278,2.2786,2.2888,2.2914,2.2982,2.2851,2.2853,2.2854,0,2.3001,2.2991,2.3021,2.2991,2.2991,2.3003,2.2992,2.2994,2.2975,2.2959,2.2952,2.2918,2.293,2.2888,2.2905,2.2879,2.2878,2.2867,2.2868,2.2868,2.2821,2.2891,2.3002,2.3013,2.2867,2.2866,2.2865,0,2.3088,2.3083,2.31,2.3094,2.3059,2.3068,2.3054,2.3033,2.3031,2.3022,2.302,2.3013,2.301,2.3006,2.2972,2.2944,2.2993,2.2948,2.298,2.2981,2.2993,2.2993,2.3106,2.2992,2.2992,2.2992,2.2992,0,2.3172,2.3192,2.3139,2.315,2.3171,2.3128,2.3151,2.3132,2.3115,2.3121,2.3077,2.3085,2.3039,2.3042,2.3015,2.3033,2.3032,2.302,2.3012,2.3024,2.3025,2.3023,2.3017,2.2995,2.2994,2.2994,2.2993,0,2.3273,2.3238,2.3254,2.3219,2.3211,2.3229,2.32,2.3209,2.3184,2.3194,2.3193,2.3156,2.3157,2.3122,2.3116,2.3098,2.3129,2.3113,2.3135,2.313,2.3164,2.3162,2.3281,2.3294,2.3172,2.3173,2.3174,0,2.3329,2.3343,2.331,2.3311,2.3299,2.3301,2.3298,2.3257,2.3256,2.3236,2.3248,2.3245,2.3241,2.3245,2.3218,2.3213,2.3197,2.3239,2.3196,2.3207,2.3198,2.3198,2.3199,2.3248,2.325,2.3251,2.3252,0,2.3431,2.3414,2.341,2.3402,2.3399,2.3391,2.3379,2.3383,2.3338,2.3339,2.3339,2.3336,2.333,2.3328,2.3318,2.3305,2.3272,2.3266,2.3273,2.3285,2.3297,2.3291,2.316,2.3263,2.3262,2.3262,2.3261,2.326,2.3512,2.3522,2.3501,2.3499,2.3486,2.3476,2.3483,2.346,2.3459,2.345,2.3426,2.343,2.3412,2.3395,2.3385,2.3388,2.3368,2.3378,2.3381,2.3384,2.3391,2.3297,2.3387,2.3386,2.3386,2.3386,2.3385,0,2.3612,2.3596,2.3595,2.358,2.3579,2.3547,2.3533,2.3534,2.3538,2.3524,2.352,2.3521,2.3519,2.3491,2.3486,2.3494,2.3479,2.3495,2.3494,2.3491,2.341,2.3404,2.3507,2.3507,2.3507,2.3507,2.3507,2.3507,2.3664,2.368,2.366,2.367,2.3653,2.3657,2.3651,2.3643,2.3631,2.3633,2.3631,2.3613,2.3593,2.3587,2.3584,2.3576,2.3576,2.3597,2.3584,2.3509,2.3497,2.3486,2.348,2.3598,2.3598,2.3665,2.3666,2.3667]},{"header":{"parameterUnit":"m.s-1","parameterCategory":1,"la1":30.2991,"la2":30.254,"lo1":-89.0895,"lo2":-89.0444,"dy":0.0017,"dx":0.0017,"nx":28,"ny":28,"refTime":"2023-03-31T21:00:00:Z","depth":0,"parameterNumber":3,"parameterNumberName":"V-component_of_WINDS"},"data":[0,0,0,0,0,0,0,0,0,0,0,0,0,0,0,0,0,0,0,0,0,0,0,0,0,0,0,0,0,0,0,0,0,0,0,0,0,0,0,0,0,0,0,0,0,0,0,0,0,0,0,0,0,0,0,0,0,0,2.3888,2.3889,0,2.3942,2.3943,2.3943,2.3956,2.3956,2.3956,2.3955,2.4011,2.4013,2.4015,0,0,0,0,0,0,0,0,0,0,0,0,0,2.3798,2.3799,2.3888,2.3889,2.389,2.3942,2.3943,2.3943,2.3957,2.3956,2.3956,2.3955,2.401,2.4013,2.4015,0,0,0,0,0,0,0,0,0,0,0,0,0,2.3843,2.38,2.3888,2.3902,2.3904,2.3942,2.3943,2.3944,2.3957,2.3956,2.3956,2.3955,2.401,2.4012,2.4015,2.4042,0,0,2.4023,2.4024,0,0,0,0,0,0,0,0,2.384,2.3846,2.39,2.3901,2.3904,2.3942,2.3931,2.3977,2.3957,2.3937,2.3955,2.3955,2.3988,2.3993,2.4004,2.4045,2.4047,2.4024,2.4025,2.4026,2.4027,0,0,0,0,0,0,0,2.3837,2.3844,2.391,2.39,2.3903,2.3906,2.3912,2.394,2.3965,2.3938,2.3939,2.3946,2.3989,2.4002,2.4006,2.4048,2.4023,2.4026,2.4028,2.4029,2.4115,2.4116,0,0,0,0,0,0,2.3831,2.3841,2.3908,2.3911,2.387,2.3908,2.3915,2.393,2.3965,2.3969,2.3946,2.3946,2.3997,2.4002,2.4008,2.4043,2.4026,2.4029,2.403,2.4114,2.4115,2.4116,0,0,0,0,0,0,2.3829,2.3837,2.3906,2.3876,2.3885,2.3911,2.3928,2.3932,2.3944,2.397,2.3975,2.3954,2.3997,2.4004,2.4034,2.4045,2.403,2.4033,2.4114,2.4115,2.4116,2.4112,0,0,0,0,0,0,2.3827,2.3836,2.3847,2.3877,2.3887,2.3931,2.3928,2.3933,2.3948,2.3949,2.3979,2.3983,2.3997,2.403,2.4036,2.4048,2.4035,2.4113,2.4114,2.4115,2.4111,2.4113,2.4114,0,0,0,0,0,2.3823,2.3843,2.3847,2.3855,2.39,2.3931,2.3937,2.3952,2.3949,2.396,2.3977,2.3982,2.4042,2.4033,2.404,2.4053,2.4112,2.4114,2.4115,2.4111,2.4113,2.4114,0,0,0,0,0,0,2.3814,2.3848,2.3852,2.3882,2.3904,2.3933,2.3948,2.3954,2.3977,2.3976,2.3994,2.4001,2.403,2.4045,2.4033,2.4082,2.4077,2.408,2.4071,2.4073,2.4075,2.4071,2.4037,0,0,0,0,0,2.3816,2.3838,2.3866,2.389,2.39,2.3922,2.3936,2.3946,2.3969,2.3978,2.3998,2.402,2.4044,2.4059,2.4083,2.4114,2.4121,2.4126,2.4128,2.4129,2.4131,2.4149,2.4152,2.4121,2.4121,2.4121,0,0,2.3819,2.384,2.3853,2.3889,2.3906,2.3929,2.393,2.3954,2.3971,2.3982,2.4012,2.4027,2.4053,2.4084,2.4098,2.4097,2.4141,2.4131,2.4131,2.4133,2.4151,2.4154,2.4157,2.4122,2.4122,2.4122,0,0,2.3837,2.3855,2.3877,2.3895,2.3922,2.3936,2.3942,2.3971,2.3981,2.4011,2.402,2.4041,2.4082,2.41,2.4115,2.4141,2.4146,2.4148,2.4155,2.4173,2.4175,2.4177,2.4187,2.419,2.415,2.415,2.415,0,2.3837,2.3872,2.3888,2.3911,2.3927,2.3939,2.3962,2.3978,2.4012,2.4022,2.402,2.4072,2.409,2.4126,2.4132,2.4144,2.4151,2.4144,2.4173,2.4176,2.4178,2.4188,2.4191,2.415,2.415,2.415,2.415,0,2.3872,2.3896,2.391,2.3943,2.396,2.3983,2.4003,2.4019,2.4027,2.4042,2.4073,2.4096,2.4124,2.4133,2.4142,2.417,2.4169,2.417,2.4166,2.4181,2.419,2.4194,2.415,2.415,2.415,2.415,0,0,2.3885,2.3926,2.3931,2.3946,2.3977,2.3996,2.402,2.4048,2.4062,2.4084,2.4105,2.414,2.4141,2.4158,2.4169,2.4184,2.4204,2.4183,2.4184,2.4187,2.4237,2.4237,2.4241,2.4208,2.4209,2.4209,2.4235,0,2.3907,2.395,2.3965,2.4001,2.4024,2.4035,2.4056,2.4078,2.4092,2.4114,2.413,2.4155,2.4154,2.4164,2.418,2.4198,2.4214,2.4196,2.4228,2.4229,2.4221,2.4245,2.4245,2.4268,2.4239,2.424,2.424,0,2.3938,2.3961,2.3999,2.4028,2.4038,2.4057,2.4084,2.4105,2.413,2.4139,2.4158,2.4168,2.4194,2.4189,2.4225,2.4213,2.4227,2.4238,2.4239,2.4243,2.4236,2.425,2.4276,2.428,2.4246,2.4245,2.4245,0,2.3944,2.3985,2.4013,2.4026,2.406,2.4073,2.4088,2.4113,2.4129,2.4153,2.4163,2.419,2.4205,2.4225,2.4243,2.4237,2.4278,2.4273,2.4287,2.4287,2.4296,2.4295,2.4324,2.4304,2.4304,2.4304,2.4304,0,2.3967,2.399,2.4017,2.4034,2.4061,2.4078,2.4104,2.412,2.4141,2.4162,2.4174,2.4194,2.4215,2.4237,2.4251,2.428,2.4286,2.4295,2.4298,2.4294,2.4293,2.4304,2.4303,2.4305,2.4305,2.4304,2.4304,0,2.3978,2.3997,2.4029,2.4059,2.4067,2.4085,2.4111,2.4129,2.4144,2.4171,2.4178,2.4202,2.423,2.4249,2.4284,2.4293,2.4324,2.4327,2.4315,2.4317,2.433,2.4329,2.4368,2.4374,2.4349,2.4349,2.4349,0,2.3992,2.401,2.4042,2.4057,2.4072,2.4096,2.4112,2.4131,2.4148,2.4178,2.4192,2.422,2.4243,2.4287,2.4307,2.4335,2.4339,2.435,2.4343,2.4338,2.4339,2.4338,2.434,2.4352,2.4352,2.4352,2.4352,0,2.4014,2.4023,2.4046,2.4073,2.4093,2.4115,2.4137,2.4149,2.4171,2.419,2.4218,2.4236,2.4272,2.43,2.4329,2.4345,2.4352,2.4354,2.4359,2.4355,2.4348,2.4353,2.4319,2.4353,2.4353,2.4353,2.4353,2.4353,2.4027,2.4044,2.4069,2.4095,2.4114,2.4135,2.4153,2.4171,2.4195,2.4225,2.4235,2.4264,2.429,2.433,2.4346,2.4369,2.4369,2.4375,2.4377,2.4379,2.4379,2.4344,2.4375,2.4375,2.4375,2.4375,2.4375,0,2.405,2.4067,2.4091,2.4122,2.4143,2.4148,2.4173,2.419,2.4216,2.4239,2.4262,2.4294,2.4322,2.4345,2.4374,2.4388,2.4392,2.4395,2.4394,2.4398,2.4378,2.4371,2.4391,2.4391,2.4391,2.4391,2.4391,2.4391,2.4064,2.4093,2.4105,2.4144,2.4161,2.419,2.4204,2.4223,2.4242,2.4278,2.4301,2.4316,2.4339,2.437,2.4395,2.4401,2.4412,2.4413,2.4421,2.4401,2.4399,2.4397,2.4391,2.4415,2.4415,2.4439,2.4439,2.4439]}]]